Findlay, OH

4:39 AM EST on December 07, 2019 (GMT -0500)
Findlay

Weather History for KFDY - October, 2019

Change the Weather History Date:

Monday, October 28, 2019

  Actual Average Record
Temperature  
Mean Temperature 52 °F -  
Max Temperature 66 °F 57 °F 75 °F (1950)
Min Temperature 39 °F 39 °F 21 °F (1976)
Degree Days  
Heating Degree Days 12    
Growing Degree Days 2 (Base 50)    
Moisture  
Dew Point 43 °F    
Average Humidity 71    
Maximum Humidity 90    
Minimum Humidity 45    
Precipitation  
Precipitation 0.00 in - - ()
Sea Level Pressure  
Sea Level Pressure 30.06 in    
Wind  
Wind Speed 6 mph (SSE)    
Max Wind Speed 13 mph    
Max Gust Speed -    
Visibility 10 miles    
Events      
Averages and records for this station are not official NWS values.
T = Trace of Precipitation, MM = Missing Value Source: NWS Daily Summary

Daily Weather History Graph

Daily Weather History Graph

Search for Another Location

Airport or City:

Astronomy

Oct. 28, 2019 Rise Set
Actual Time 8:00 AM EDT 6:35 PM EDT
Civil Twilight 7:32 AM EDT 7:04 PM EDT
Nautical Twilight 6:59 AM EDT 7:36 PM EDT
Astronomical Twilight 6:28 AM EDT 8:08 PM EDT
Moon 8:20 AM EDT (10/28) 7:20 PM EDT (10/28)
Length of Visible Light 11h 31m
Length of Day
10h 35m
New Moon, 0% of the Moon is Illuminated
Oct 28
New Moon
Nov 4
First Quarter
Nov 12
Full
Nov 19
Last Quarter
Nov 26
New

Hourly Weather History & Observations

Time (EDT) Temp. Windchill Dew Point Humidity Pressure Visibility Wind Dir Wind Speed Gust Speed Precip Events Conditions
12:53 AM 44.1 °F 40.1 °F 39.0 °F 82% 30.03 in 10.0 mi SSE 6.9 mph - N/A   Clear
1:53 AM 42.1 °F 39.2 °F 37.9 °F 85% 30.04 in 10.0 mi South 4.6 mph - N/A   Clear
2:53 AM 43.0 °F 41.3 °F 37.9 °F 82% 30.06 in 10.0 mi SE 3.5 mph - N/A   Clear
3:53 AM 42.1 °F 40.2 °F 37.9 °F 85% 30.06 in 10.0 mi SSE 3.5 mph - N/A   Clear
4:53 AM 42.1 °F 38.4 °F 39.0 °F 89% 30.07 in 10.0 mi SSE 5.8 mph - N/A   Clear
5:53 AM 41.0 °F 38.0 °F 37.9 °F 89% 30.08 in 10.0 mi South 4.6 mph - N/A   Clear
6:53 AM 42.1 °F 38.4 °F 39.0 °F 89% 30.09 in 10.0 mi SSE 5.8 mph - N/A   Clear
7:53 AM 39.0 °F 35.7 °F 36.0 °F 89% 30.09 in 10.0 mi SSE 4.6 mph - N/A   Clear
8:53 AM 45.0 °F 41.8 °F 42.1 °F 90% 30.10 in 10.0 mi SSE 5.8 mph - N/A   Clear
9:53 AM 50.0 °F - 45.0 °F 83% 30.11 in 10.0 mi South 4.6 mph - N/A   Clear
10:53 AM 57.0 °F - 48.0 °F 72% 30.10 in 10.0 mi South 4.6 mph - N/A   Clear
11:53 AM 61.0 °F - 46.9 °F 60% 30.09 in 10.0 mi South 6.9 mph - N/A   Clear
12:53 PM 63.0 °F - 46.0 °F 54% 30.08 in 10.0 mi Variable 5.8 mph - N/A   Clear
1:41 PM 64.9 °F - 45.0 °F 48% 30.06 in 1.5 mi South 10.4 mph - N/A   Haze
1:53 PM 64.9 °F - 45.0 °F 48% 30.05 in 10.0 mi SSW 10.4 mph - N/A   Clear
2:53 PM 66.9 °F - 45.0 °F 45% 30.03 in 10.0 mi SSW 12.7 mph - N/A   Clear
3:53 PM 66.9 °F - 45.0 °F 45% 30.02 in 10.0 mi SSW 10.4 mph - N/A   Clear
4:53 PM 66.9 °F - 46.0 °F 47% 30.02 in 10.0 mi SSW 6.9 mph - N/A   Clear
5:53 PM 64.9 °F - 46.0 °F 50% 30.04 in 10.0 mi SSW 4.6 mph - N/A   Clear
6:53 PM 61.0 °F - 46.9 °F 60% 30.04 in 10.0 mi Calm Calm - N/A   Clear
7:53 PM 55.0 °F - 46.0 °F 72% 30.04 in 10.0 mi Calm Calm - N/A   Clear
8:53 PM 53.1 °F - 46.0 °F 77% 30.05 in 10.0 mi East 3.5 mph - N/A   Clear
9:53 PM 51.1 °F - 45.0 °F 80% 30.03 in 10.0 mi SE 4.6 mph - N/A   Clear
10:53 PM 48.9 °F - 44.1 °F 83% 30.03 in 10.0 mi SE 5.8 mph - N/A   Clear
11:53 PM 48.9 °F - 44.1 °F 83% 30.03 in 10.0 mi South 5.8 mph - N/A   Clear